TimeEDT,TemperatureF,Dew PointF,Humidity,Sea Level PressureIn,VisibilityMPH,Wind Direction,Wind SpeedMPH,Gust SpeedMPH,PrecipitationIn,Events,Conditions,WindDirDegrees,DateUTC
12:53 AM,52.0,45.0,77,30.19,10.0,ENE,6.9,-,N/A,,Clear,60,2013-10-15 04:53:00
1:53 AM,51.1,45.0,80,30.17,10.0,ENE,9.2,-,N/A,,Clear,60,2013-10-15 05:53:00
2:53 AM,51.1,46.0,83,30.15,10.0,East,8.1,-,N/A,,Clear,80,2013-10-15 06:53:00
3:53 AM,50.0,46.9,89,30.15,10.0,ENE,3.5,-,N/A,,Clear,60,2013-10-15 07:53:00
4:53 AM,51.1,48.0,89,30.12,9.0,East,5.8,-,N/A,,Clear,80,2013-10-15 08:53:00
5:53 AM,54.0,51.1,90,30.11,6.0,East,5.8,-,N/A,,Clear,100,2013-10-15 09:53:00
6:53 AM,57.0,54.0,89,30.11,6.0,Variable,4.6,-,N/A,,Clear,0,2013-10-15 10:53:00
7:16 AM,57.2,55.4,94,30.11,6.0,SE,5.8,-,N/A,,Mostly Cloudy,140,2013-10-15 11:16:00
7:19 AM,57.2,55.4,94,30.11,6.0,SE,3.5,-,N/A,,Mostly Cloudy,140,2013-10-15 11:19:00
7:53 AM,57.9,55.0,90,30.10,5.0,SE,6.9,-,N/A,,Overcast,140,2013-10-15 11:53:00
8:14 AM,57.2,55.4,94,30.10,2.5,SSE,5.8,-,N/A,,Overcast,150,2013-10-15 12:14:00
8:51 AM,57.2,55.4,94,30.10,1.5,SSE,5.8,-,N/A,,Overcast,150,2013-10-15 12:51:00
8:53 AM,57.9,55.9,93,30.10,1.5,SE,6.9,-,N/A,,Overcast,140,2013-10-15 12:53:00
9:14 AM,57.2,55.4,94,30.10,0.5,SSE,5.8,-,N/A,Fog,Fog,150,2013-10-15 13:14:00
9:53 AM,57.9,57.0,97,30.09,0.2,South,8.1,-,N/A,Fog,Fog,170,2013-10-15 13:53:00
10:21 AM,59.0,57.2,94,30.09,1.0,South,8.1,-,N/A,,Overcast,170,2013-10-15 14:21:00
10:53 AM,59.0,57.9,96,30.09,1.0,South,6.9,-,N/A,,Overcast,170,2013-10-15 14:53:00
11:25 AM,60.8,59.0,94,30.08,2.5,South,9.2,-,N/A,,Overcast,180,2013-10-15 15:25:00
11:38 AM,60.8,59.0,94,30.08,3.0,South,9.2,-,N/A,,Overcast,180,2013-10-15 15:38:00
11:53 AM,61.0,59.0,93,30.07,5.0,South,6.9,-,N/A,,Overcast,170,2013-10-15 15:53:00
12:15 PM,62.6,60.8,94,30.08,6.0,South,9.2,-,N/A,,Overcast,190,2013-10-15 16:15:00
12:53 PM,64.9,60.1,84,30.06,8.0,South,6.9,-,N/A,,Overcast,190,2013-10-15 16:53:00
1:08 PM,64.4,60.8,88,30.06,9.0,South,11.5,-,N/A,,Overcast,180,2013-10-15 17:08:00
1:53 PM,68.0,61.0,78,30.03,10.0,South,6.9,-,N/A,,Mostly Cloudy,190,2013-10-15 17:53:00
2:01 PM,68.0,62.6,83,30.03,10.0,South,6.9,-,N/A,,Scattered Clouds,170,2013-10-15 18:01:00
2:53 PM,70.0,62.1,76,30.00,10.0,South,9.2,-,N/A,,Scattered Clouds,190,2013-10-15 18:53:00
3:53 PM,72.0,61.0,68,29.99,10.0,SSW,11.5,-,N/A,,Scattered Clouds,210,2013-10-15 19:53:00
4:53 PM,71.1,61.0,70,29.97,10.0,South,10.4,-,N/A,,Scattered Clouds,180,2013-10-15 20:53:00
5:53 PM,70.0,61.0,73,29.96,10.0,South,9.2,-,N/A,,Overcast,180,2013-10-15 21:53:00
6:26 PM,69.8,60.8,73,29.97,10.0,West,6.9,-,N/A,,Overcast,260,2013-10-15 22:26:00
6:53 PM,66.0,63.0,90,29.95,10.0,West,3.5,-,0.00,Rain,Light Rain,260,2013-10-15 22:53:00
7:21 PM,66.2,62.6,88,29.96,10.0,Calm,Calm,-,0.00,,Overcast,0,2013-10-15 23:21:00
8:10 PM,66.2,62.6,88,29.97,10.0,SSW,5.8,-,0.00,,Overcast,210,2013-10-16 00:10:00
8:53 PM,66.0,62.1,87,29.96,10.0,SW,3.5,-,0.00,,Overcast,230,2013-10-16 00:53:00
9:27 PM,66.2,62.6,88,29.97,10.0,SSW,3.5,-,N/A,,Overcast,210,2013-10-16 01:27:00
9:53 PM,66.0,62.1,87,29.96,10.0,SSW,3.5,-,N/A,,Overcast,200,2013-10-16 01:53:00
10:53 PM,66.0,61.0,84,29.96,10.0,SSW,8.1,-,N/A,,Overcast,200,2013-10-16 02:53:00
11:53 PM,66.9,60.1,79,29.95,10.0,SSW,9.2,-,N/A,,Overcast,210,2013-10-16 03:53:00